This is the latest recevied weather packets stored in our database for station/object OE6PWE-13. If no packets are shown the sender has not sent any weather packets the latest 10 day(s).
| Time | Temp. | Humidity | Pressure | Rain* | Wind** | Luminosity | Snow |
|---|---|---|---|---|---|---|---|
| 1777729513 | 26.11° C | 31% | 1019 hPa | 0 mm | - | - | - |
| 1777728619 | 25.56° C | 32% | 1019 hPa | 0 mm | - | - | - |
| 1777727713 | 25° C | 33% | 1020 hPa | 0 mm | - | - | - |
| 1777725913 | 25° C | 31% | 1020 hPa | 0 mm | - | - | - |
| 1777725021 | 25° C | 32% | 1020 hPa | 0 mm | - | - | - |
| 1777724113 | 25.56° C | 33% | 1020 hPa | 0 mm | - | - | - |
| 1777723219 | 25° C | 34% | 1020 hPa | 0 mm | - | - | - |
| 1777722314 | 23.33° C | 34% | 1021 hPa | 0 mm | - | - | - |
| 1777720513 | 23.33° C | 39% | 1021 hPa | 0 mm | - | - | - |
| 1777719620 | 23.33° C | 37% | 1021 hPa | 0 mm | - | - | - |
| 1777718713 | 23.33° C | 38% | 1022 hPa | 0 mm | - | - | - |
| 1777717820 | 22.78° C | 38% | 1022 hPa | 0 mm | - | - | - |
| 1777716914 | 21.67° C | 40% | 1022 hPa | 0 mm | - | - | - |
| 1777716025 | 21.11° C | 41% | 1022 hPa | 0 mm | - | - | - |
| 1777715113 | 21.11° C | 42% | 1023 hPa | 0 mm | - | - | - |
| 1777714221 | 21.67° C | 42% | 1023 hPa | 0 mm | - | - | - |
| 1777713313 | 21.11° C | 43% | 1023 hPa | 0 mm | - | - | - |
| 1777712420 | 20° C | 45% | 1023 hPa | 0 mm | - | - | - |
| 1777711513 | 20° C | 47% | 1023 hPa | 0 mm | - | - | - |
| 1777710622 | 18.89° C | 47% | 1024 hPa | 0 mm | - | - | - |
| 1777709714 | 18.33° C | 54% | 1024 hPa | 0 mm | - | - | - |
| 1777708819 | 17.78° C | 54% | 1024 hPa | 0 mm | - | - | - |
| 1777707914 | 16.67° C | 60% | 1024 hPa | 0 mm | - | - | - |
| 1777707020 | 16.11° C | 59% | 1024 hPa | 0 mm | - | - | - |
| 1777706114 | 16.67° C | 57% | 1024 hPa | 0 mm | - | - | - |
* Rain latest hour (hover to see other rain measurements)
** Current wind speed in m/s (hover to see current wind gust speed)